Location: Betzi
(47.2343°N, 9.5260°E)
Time: 22:10:12
(UTC+00:00)

USA 308 - Pass Details

Date: 27 May 2022
Orbit: 549 x 558 km, 54.0° (Epoch: 14 June)

Event Time Altitude Azimuth Distance (km) Brightness Sun altitude
Exits shadow 00:36:50 42° 243° (WSW) 806 3.3 -19.3°
Maximum altitude 00:38:13 86° 328° (NNW) 565 2.8 -19.2°
Drops below altitude 10° 00:42:25 10° 59° (ENE) 1,842 6.2 -19.0°
Sets 00:44:41 0° 60° (ENE) 2,750 7.2 -18.8°
